This is the latest recevied weather packets stored in our database for station/object N4PWG. If no packets are shown the sender has not sent any weather packets the latest 10 day(s).
| Time | Temp. | Humidity | Pressure | Rain* | Wind** | Luminosity | Snow |
|---|---|---|---|---|---|---|---|
| 1778071308 | 8.89° C | 94% | 1030 hPa | 0 mm | - | 42 W/m² | - |
| 1778071005 | 8.89° C | 95% | 1030 hPa | 0 mm | - | 43 W/m² | - |
| 1778070704 | 8.89° C | 94% | 1030 hPa | 0 mm | - | 52 W/m² | - |
| 1778070400 | 8.89° C | 94% | 1029.8 hPa | 0 mm | - | 48 W/m² | - |
| 1778070098 | 8.89° C | 94% | 1029.7 hPa | 0 mm | - | 49 W/m² | - |
| 1778069795 | 8.89° C | 95% | 1029.5 hPa | 0 mm | - | 47 W/m² | - |
| 1778069492 | 8.89° C | 96% | 1029.3 hPa | 0 mm | - | 37 W/m² | - |
| 1778069190 | 8.89° C | 97% | 1029.1 hPa | 0 mm | - | 36 W/m² | - |
| 1778068887 | 8.89° C | 97% | 1029.2 hPa | 0 mm | - | 25 W/m² | - |
| 1778068585 | 8.89° C | 97% | 1029.3 hPa | 0 mm | - | 16 W/m² | - |
| 1778068283 | 8.89° C | 97% | 1029.5 hPa | 0 mm | - | 11 W/m² | - |
| 1778067980 | 8.89° C | 97% | 1029.3 hPa | 0 mm | - | 14 W/m² | - |
| 1778067678 | 8.89° C | 99% | 1029.1 hPa | 0 mm | - | 12 W/m² | - |
| 1778067376 | 8.89° C | 98% | 1029.3 hPa | 0 mm | - | 7 W/m² | - |
| 1778067073 | 8.89° C | 99% | 1029.1 hPa | 0 mm | - | 6 W/m² | - |
| 1778066770 | 8.89° C | 99% | 1029.3 hPa | 0 mm | - | 3 W/m² | - |
| 1778066467 | 8.89° C | 99% | 1029.3 hPa | 0 mm | - | 0 W/m² | - |
| 1778066164 | 9.44° C | 99% | 1029.3 hPa | 0 mm | - | 1 W/m² | - |
| 1778065862 | 9.44° C | 99% | 1029.2 hPa | 0 mm | - | 0 W/m² | - |
| 1778065560 | 9.44° C | 99% | 1029 hPa | 0 mm | - | 0 W/m² | - |
| 1778065256 | 9.44° C | 99% | 1029 hPa | 0 mm | - | 0 W/m² | - |
| 1778064952 | 9.44° C | 99% | 1029.4 hPa | 0 mm | - | 0 W/m² | - |
| 1778064650 | 9.44° C | 99% | 1029.5 hPa | 0 mm | - | 0 W/m² | - |
| 1778064348 | 9.44° C | 99% | 1029.3 hPa | 0 mm | - | 0 W/m² | - |
| 1778064045 | 9.44° C | 99% | 1029 hPa | 0 mm | - | 0 W/m² | - |
* Rain latest hour (hover to see other rain measurements)
** Current wind speed in m/s (hover to see current wind gust speed)